Regional Weather Roundup
Issued by NWS

Home | Current Version | Previous Version | Graphics & Text | Print | Product List | Glossary On
Versions: 1 2 3 4 5 6 7 8 9 10 11 12 13 14 15 16 17 18 19 20 21 22 23 24 25 26 27 28 29 30 31 32 33 34 35 36 37 38 39 40 41 42 43 44 45 46 47 48 49 50
000
ASUS43 KFSD 272210
RWRSD

WEATHER ROUNDUP FOR SOUTH DAKOTA
NATIONAL WEATHER SERVICE SIOUX FALLS SD
500 PM CDT MON JUL 27 2015

NOTE: "FAIR" INDICATES FEW OR NO CLOUDS BELOW 12,000 FEET WITH NO
SIGNIFICANT WEATHER AND/OR OBSTRUCTIONS TO VISIBILITY.


SDZ001>005-009-010-012>017-272300-
NORTHWEST AND NORTH CENTRAL SOUTH DAKOTA

CITY           SKY/WX    TMP DP  RH WIND       PRES   REMARKS
BUFFALO          N/A     87  62  43 SE24      29.58F
FAITH            N/A     95  59  30 SE23G37   29.64F
MOBRIDGE       SUNNY     94  67  41 SE24      29.66F HX  97
$$

SDZ012>016-024>037-041>051-057-063-072>074-272300-
SOUTHWEST AND SOUTH CENTRAL SOUTH DAKOTA

CITY           SKY/WX    TMP DP  RH WIND       PRES   REMARKS
RAPID CTY ARPT MOSUNNY   93  64  38 S13G22    29.64F
PIERRE         SUNNY     95  65  37 SE28G36   29.65F HX  97
CUSTER         SUNNY     85  57  38 SE12G21   29.83F
ELLSWORTH AFB  PTSUNNY   92  62  37 S15G23    29.63F
PHILIP         SUNNY     91  67  44 SE22G30   29.63F
PINE RIDGE     SUNNY     94  61  33 S16G26    29.68F
SPEARFISH      FAIR      75  64  69 S10       29.71F
WINNER         FAIR      93  66  40 SE18G28   29.72F HX  96
$$

SDZ004>011-016>023-039-040-272300-
NORTHEAST SOUTH DAKOTA

CITY           SKY/WX    TMP DP  RH WIND       PRES   REMARKS
ABERDEEN       SUNNY     91  73  55 SE20G25   29.74F HX  99
WATERTOWN      FAIR      87  70  56 S17       29.82F
BROOKINGS      FAIR      84  66  54 SE12G20   29.84F
SISSETON         N/A     85  75  72 SE16      29.79F
$$

SDZ017-020-022-023-036>040-048>070-272300-
SOUTHEAST SOUTH DAKOTA

CITY           SKY/WX    TMP DP  RH WIND       PRES   REMARKS
SIOUX FALLS    FAIR      85  71  63 S14       29.81F
HURON          MOSUNNY   88  70  55 SE17G28   29.74F
CHAMBERLAIN    PTSUNNY   90  73  57 SE20      29.72F HX  99
MITCHELL       MOSUNNY   87  76  69 S20G28    29.76F HX  97
YANKTON        FAIR      88  75  66 SE15G21   29.77F HX  97
$$

ABBREVIATIONS USED IN REMARKS
   TC - TEMPERATURE IN CELSIUS
  WCI - WIND CHILL INDEX
   HX - HEAT INDEX
  VSB - VISIBILITY




USA.gov is the U.S. government's official web portal to all federal, state and local government web resources and services.